FW8396 Weather Reports


time (UTC)temp
C
wind
direction
speed
KPH
gust
KPH
rain 1hr
cm
rain 24hr
cm
rain mn
cm
humidity
%
barometer
mb
20260502181528 23 321 6.4 17.7 0.00 6.30 0.00 48 1021.4
20260502163032 21 333 3.2 17.7 0.00 7.42 0.00 59 1021.9
20260502161527 20 11 4.8 14.5 0.00 7.42 0.00 60 1021.8
20260502151530 18 11 3.2 19.3 0.00 7.47 0.00 72 1021.7
20260502123030 12 304 1.6 8.0 0.00 7.72 0.00 90 1020.5
20260502121532 12 0 1.6 8.0 0.00 7.72 0.00 90 1020.2
20260502114544 11 0 0.0 3.2 0.00 7.75 0.00 89 1020.2
20260502113030 12 0 0.0 4.8 0.00 7.75 0.00 89 1020.0
20260502111528 12 313 1.6 9.7 0.00 7.75 0.00 89 1019.7
20260502110029 12 297 1.6 9.7 0.00 7.75 0.00 89 1019.5
20260502104527 12 304 1.6 9.7 0.00 7.98 0.00 89 1019.3
20260502103029 12 0 1.6 6.4 0.00 7.98 0.00 88 1019.2
20260502101530 12 0 0.0 6.4 0.00 7.98 0.00 88 1019.1
20260502091528 12 42 0.0 11.3 0.00 8.33 0.00 86 1018.2
20260502071530 13 0 0.0 12.9 0.00 9.30 0.00 89 1017.9
20260502070033 13 327 1.6 14.5 0.00 9.30 0.00 89 1017.8
20260502064543 13 30 1.6 14.5 0.00 9.35 0.00 90 1017.8
20260502063029 13 37 3.2 12.9 0.00 9.35 0.00 90 1017.5
20260502061530 13 43 3.2 17.7 0.00 9.35 0.00 90 1017.6
20260502060042 13 42 1.6 9.7 0.00 9.35 0.00 91 1017.3
20260502054531 13 315 1.6 12.9 0.00 9.93 0.00 91 1017.4
20260502053031 13 11 3.2 12.9 0.00 9.93 0.00 91 1017.4
20260502051534 13 24 4.8 19.3 0.00 9.93 0.00 92 1017.3
20260502050033 13 338 1.6 20.9 0.00 9.93 0.00 92 1017.2
20260502044532 13 292 3.2 14.5 0.00 9.93 9.93 92 1017.5
20260502043034 13 0 3.2 19.3 0.00 9.93 9.93 92 1017.5
20260502041537 13 310 3.2 16.1 0.00 9.93 9.93 92 1017.4
20260502040031 13 321 3.2 14.5 0.00 9.93 9.93 93 1017.4
20260502034532 13 11 4.8 17.7 0.03 9.93 9.93 93 1017.1
20260502033033 13 337 3.2 17.7 0.03 9.93 9.93 93 1017.1
20260502031532 13 268 4.8 19.3 0.05 9.93 9.93 93 1016.5
20260502030030 13 38 1.6 16.1 0.10 9.93 9.93 93 1015.9
20260502024533 13 321 3.2 14.5 0.10 9.91 9.91 93 1016.0
20260502023032 13 13 3.2 12.9 0.10 9.91 9.91 93 1015.6
20260502021530 14 9 3.2 16.1 0.15 9.88 9.88 93 1015.8
20260502020033 14 0 1.6 14.5 0.15 9.83 9.83 93 1015.7
20260502014530 14 355 3.2 16.1 0.15 9.80 9.80 93 1015.3
20260502013030 15 319 4.8 16.1 0.15 9.80 9.80 93 1014.7
20260502011528 15 0 3.2 16.1 0.13 9.73 9.73 93 1014.5
20260502010031 15 304 4.8 14.5 0.30 9.68 9.68 93 1014.5
20260502004536 15 56 3.2 14.5 0.43 9.65 9.65 93 1013.4
20260502003030 15 355 3.2 12.9 0.53 9.65 9.65 93 1013.2
20260502001530 15 11 4.8 14.5 0.61 9.60 9.60 93 1013.4
20260502000029 15 275 1.6 8.0 0.41 9.35 9.35 93 1013.6
20260501234531 15 11 8.0 22.5 0.28 9.22 9.22 93 1012.4
20260501233030 15 19 6.4 19.3 0.15 9.09 9.09 93 1012.3
20260501231530 15 98 3.2 17.7 0.08 8.99 8.99 93 1013.0
20260501230030 15 56 1.6 8.0 0.20 8.94 8.94 93 1012.7
20260501224527 15 30 3.2 16.1 0.41 8.94 8.94 93 1012.2
20260501223029 16 36 3.2 14.5 1.09 8.94 8.94 93 1012.2
20260501221530 16 35 1.6 12.9 1.22 8.92 8.92 94 1012.7
20260501220037 16 55 3.2 14.5 1.09 8.74 8.74 93 1012.8
20260501214530 16 119 3.2 16.1 0.99 8.53 8.53 93 1012.3
20260501213035 16 313 1.6 9.7 0.51 7.82 7.82 93 1013.0
20260501211533 16 355 1.6 14.5 0.97 7.70 7.70 93 1012.4
20260501210032 16 303 3.2 19.3 0.97 7.65 7.65 93 1011.3
20260501204542 16 347 4.8 16.1 1.07 7.54 7.54 93 1011.3
20260501203030 16 11 1.6 11.3 0.81 7.24 7.24 93 1012.2
20260501201530 16 308 3.2 14.5 0.38 6.73 6.73 93 1011.0
20260501200032 16 24 3.2 11.3 0.36 6.68 6.68 93 1011.1
20260501194529 16 12 1.6 19.3 1.40 6.48 6.48 93 1011.2
20260501193029 16 111 1.6 11.3 1.52 6.40 6.40 93 1011.0
20260501191536 17 360 1.6 17.7 2.34 6.35 6.35 93 1011.3
20260501190030 16 338 3.2 16.1 2.67 6.32 6.32 93 1010.7
20260501184542 16 168 3.2 9.7 1.45 5.00 5.00 93 1012.9
20260501183036 16 51 6.4 17.7 1.32 4.88 4.88 93 1010.2